Regional Weather Roundup
Issued by NWS

Home | Current Version | Previous Version | Text Only | Print | Product List | Glossary On
Versions: 1 2 3 4 5 6 7 8 9 10 11 12 13 14 15 16 17 18 19 20 21 22 23 24 25 26 27 28 29 30 31 32 33 34 35 36 37 38 39 40 41 42 43 44 45 46 47 48 49 50
000
ASUS45 KSLC 302010
RWRUT

UTAH REGIONAL WEATHER ROUNDUP
NATIONAL WEATHER SERVICE SALT LAKE CITY UT
200 PM MDT SUN AUG 30 2015

UTZ001>011-023>025-302100-

NORTHERN UTAH

CITY           SKY/WX    TMP DP  RH WIND       PRES   REMARKS
BRIGHAM CITY   PTSUNNY   84  38  19 CALM      29.97F
HILL AFB       NOT AVBL
LOGAN          SUNNY     82  44  26 E3        29.98F
OGDEN          PTSUNNY   85  47  26 VRB5      29.98F
PROVO AIRPORT  PTSUNNY   88  52  29 SW12      29.98F
SALT LAKE CITY PTSUNNY   84  47  27 N12       29.95F
VERNAL         PTSUNNY   86  41  20 CALM      30.04F
WENDOVER       PTSUNNY   82  39  21 SE10      29.98F
HEBER CITY     CLOUDY    82  41  23 SW21G31   30.05F
WEST JORDAN    PTSUNNY   81  48  32 NW16      29.99F

$$

UTZ012>022-026-027-302100-

SOUTHERN/CENTRAL UTAH

CITY           SKY/WX    TMP DP  RH WIND       PRES   REMARKS
BLANDING       SUNNY     85  45  24 S7        30.23F
BRYCE CANYON   PTSUNNY   78  45  30 S16G28    30.28F
CEDAR CITY     CLOUDY    83  44  25 S24G38    30.10F
DELTA          CLOUDY    88  40  18 SW21G28   30.01F
HANKSVILLE     PTSUNNY   95  45  17 SW17G23   30.01F HX  91
MILFORD        CLOUDY    87  45  23 SW31G38   30.04F
MOAB/CYNLANDS  MOSUNNY   95  46  18 SW17G26   29.99F HX  91
PRICE          LGT RAIN  73  52  47 E12       30.13R
ST GEORGE      CLOUDY    97  50  20 W10       29.91F HX  94
KANAB          PTSUNNY   84  54  34 CALM      30.12F

$$

REGIONAL REPORTS     COLORADO/ARIZONA

CITY           SKY/WX    TMP DP  RH WIND       PRES   REMARKS
CRAIG, CO      PTSUNNY   80  41  24 W12G18    30.16S
GRAND JUNCTION LGT RAIN  87  45  23 VRB6      30.05F
RIFLE          MOSUNNY   85  42  22 W8G18     30.09F
MONTROSE       MOSUNNY   85  44  23 N5        30.14F
CORTEZ         SUNNY     86  45  23 SW8       30.17F
PAGE, AZ       PTSUNNY   87  52  29 N12       30.03F
GRAND CANYON   PTSUNNY   76  54  46 E8G16     30.25F
KINGMAN        MOSUNNY   96  52  22 S23G33    29.99F HX  93
FLAGSTAFF      PTSUNNY   77  53  43 SW21G26   30.29F

$$

REGIONAL REPORTS    NEVADA/IDAHO/WYOMING

CITY           SKY/WX    TMP DP  RH WIND       PRES   REMARKS
LAS VEGAS, NV  PTSUNNY  100  44  14 S16G23    29.82F HX  96
ELY            MOSUNNY   82  30  15 S12G22    30.09F
ELKO           MOSUNNY   80  32  17 SW8       30.06F
POCATELLO, ID  SUNNY     78  41  26 W18G24    30.03F
BURLEY         SUNNY     75  41  29 W9        30.01F
EVANSTON, WY   PTSUNNY   80  38  22 W23G35    30.14F
ROCK SPRINGS   CLOUDY    76  42  29 SE6       30.11F
KEMMERER       PTSUNNY   77  34  20 SW24G40   30.15F

$$



USA.gov is the U.S. government's official web portal to all federal, state and local government web resources and services.